Simultaneous Nadir Overpasses (SNOs) Predictions

Prediction of SNOs between GOES-14 and AQUA Satellite Orbit:

Table of predicted SNOs for the next 14.0 days since TLE Epoch: 11/13/2021
Index Date Time (GOES-14) GOES-14 Lat,Lon AQUA Lat,Lon Distance(km) Time Diff (sec)
1 11/13/2021 08:27:11 0.12,-104.37 -0.12,-103.20 132.59 80
2 11/13/2021 20:48:34 -0.10,-104.14 -1.01,-108.39 482.98 80
3 11/15/2021 08:15:00 0.13,-104.38 -0.73,-100.24 469.46 80
4 11/15/2021 20:36:23 -0.10,-104.16 -0.40,-105.43 145.45 80
5 11/17/2021 20:26:53 -0.10,-104.17 0.28,-102.48 192.13 80
6 11/18/2021 08:48:09 0.08,-104.42 0.79,-107.64 367.34 80
7 11/20/2021 08:35:58 0.09,-104.42 0.16,-104.68 30.38 80
8 11/22/2021 08:21:07 0.10,-104.42 -0.47,-101.73 306.42 80
9 11/22/2021 20:42:31 -0.07,-104.16 -0.65,-106.91 312.71 80
10 11/24/2021 20:33:00 -0.07,-104.17 -0.01,-103.96 24.42 80
11 11/26/2021 20:20:48 -0.07,-104.17 0.58,-100.99 361.69 80
